Weather History for KMCW - February, 2012

Change the Weather History Date:

Tuesday, February 28, 2012

  Actual Average Record
Temperature  
Mean Temperature 31 °F 26 °F  
Max Temperature 37 °F 34 °F 60 °F (2000)
Min Temperature 24 °F 17 °F -22 °F (1962)
Degree Days  
Heating Degree Days 34 39  
Month to date heating degree days 1042 1240  
Since 1 July heating degree days 4994 5851  
Cooling Degree Days 0 0  
Month to date cooling degree days 0 0  
Year to date cooling degree days 0 0  
Moisture  
Dew Point 29 °F    
Average Humidity 81    
Maximum Humidity 92    
Minimum Humidity 69    
Precipitation  
Precipitation 0.39 in 0.05 in 0.61 in (1939)
Month to date precipitation 0.52 1.00  
Year to date precipitation 1.42 1.82  
Snow  
Snow T in 0.20 in 9.00 in (1939)
Month to date snowfall 2.4 7.7  
Since 1 July snowfall 17.8 32.5  
Snow Depth 0.00 in    
Sea Level Pressure  
Sea Level Pressure 29.90 in    
Wind  
Wind Speed 16 mph (SE)    
Max Wind Speed 25 mph    
Max Gust Speed 32 mph    
Visibility 5 miles    
Events Rain , Thunderstorm    
T = Trace of Precipitation, MM = Missing Value Source: NWS Daily Summary

Daily Weather History Graph

Daily Weather History Graph

Search for Another Location

Airport or City:

Trip Planner

Search our weather history database for the weather conditions in past years. The results will help you decide how hot, cold, wet, or windy it might be!

Date:

Astronomy

Feb. 28, 2012 Rise Set
Actual Time 6:51 AM CST 6:00 PM CST
Civil Twilight 6:23 AM CST 6:29 PM CST
Nautical Twilight 5:50 AM CST 7:02 PM CST
Astronomical Twilight 5:17 AM CST 7:35 PM CST
Moon 9:48 AM CST (2/28) 12:05 AM CST (2/28)
Length of Visible Light 12h 05m
Length of Day
11h 08m
Waxing Crescent, 38% of the Moon is Illuminated
Feb 28
Waxing Crescent
Feb 29
First Quarter
Mar 8
Full
Mar 14
Last Quarter
Mar 22
New

Hourly Weather History & Observations

Time (CST) Temp. Windchill Dew Point Humidity Pressure Visibility Wind Dir Wind Speed Gust Speed Precip Events Conditions
12:53 AM 27.0 °F 18.7 °F 19.9 °F 75% 30.39 in 10.0 mi SE 8.1 mph - N/A   Overcast
1:53 AM 27.0 °F 17.3 °F 19.9 °F 75% 30.36 in 10.0 mi SE 10.4 mph - N/A   Overcast
2:53 AM 28.0 °F 18.1 °F 19.9 °F 72% 30.35 in 10.0 mi SSE 11.5 mph - N/A   Overcast
3:53 AM 28.9 °F 18.6 °F 21.0 °F 72% 30.33 in 10.0 mi SSE 12.7 mph 20.7 mph N/A   Overcast
4:53 AM 28.9 °F 19.2 °F 21.0 °F 72% 30.30 in 10.0 mi SE 11.5 mph - N/A   Overcast
5:53 AM 28.9 °F 18.6 °F 21.0 °F 72% 30.27 in 10.0 mi SE 12.7 mph - N/A   Overcast
6:53 AM 28.9 °F 18.2 °F 21.9 °F 75% 30.27 in 10.0 mi SE 13.8 mph - N/A   Overcast
7:53 AM 30.0 °F 19.1 °F 21.9 °F 72% 30.25 in 10.0 mi SE 15.0 mph - N/A   Overcast
8:53 AM 30.0 °F 19.1 °F 21.9 °F 72% 30.24 in 10.0 mi SE 15.0 mph - N/A   Overcast
9:53 AM 30.9 °F 20.7 °F 23.0 °F 72% 30.21 in 10.0 mi SE 13.8 mph - N/A   Overcast
10:53 AM 33.1 °F 21.5 °F 26.1 °F 75% 30.16 in 8.0 mi SE 19.6 mph 26.5 mph 0.00 in   Overcast
11:53 AM 32.0 °F 20.1 °F 27.0 °F 82% 30.11 in 8.0 mi SE 19.6 mph 26.5 mph 0.00 in   Overcast
12:53 PM 33.1 °F 21.2 °F 28.0 °F 82% 30.06 in 7.0 mi SE 20.7 mph 26.5 mph 0.01 in   Overcast
1:31 PM 32.0 °F 20.8 °F 28.4 °F 87% 30.01 in 3.0 mi SE 17.3 mph 24.2 mph 0.04 in   Overcast
1:53 PM 32.0 °F 20.5 °F 30.0 °F 92% 30.01 in 3.0 mi SE 18.4 mph - 0.07 in   Overcast
2:01 PM 33.8 °F 23.2 °F 30.2 °F 87% 29.96 in 2.5 mi SE 17.3 mph - N/A   Overcast
2:19 PM 33.8 °F 22.5 °F 30.2 °F 87% 29.95 in 4.0 mi SE 19.6 mph - 0.02 in Rain Light Rain
2:28 PM 33.8 °F 22.5 °F 30.2 °F 87% 29.93 in 4.0 mi SE 19.6 mph 27.6 mph 0.02 in Rain Light Rain
2:43 PM 33.8 °F 22.5 °F 30.2 °F 87% 29.91 in 5.0 mi ESE 19.6 mph 26.5 mph 0.02 in Rain Light Rain
2:53 PM 33.1 °F 23.4 °F 30.0 °F 89% 29.95 in 4.0 mi ESE 13.8 mph 23.0 mph 0.02 in Rain Light Rain
3:15 PM 32.0 °F 21.2 °F 30.2 °F 93% 29.90 in 2.0 mi ESE 16.1 mph 26.5 mph 0.04 in Rain Light Rain
3:22 PM 32.0 °F 20.5 °F 30.2 °F 93% 29.88 in 2.5 mi ESE 18.4 mph 23.0 mph 0.05 in   Overcast
3:31 PM 32.0 °F 19.2 °F 30.2 °F 93% 29.86 in 4.0 mi ESE 23.0 mph 28.8 mph 0.05 in   Overcast
3:48 PM 32.0 °F 21.2 °F 30.2 °F 93% 29.86 in 5.0 mi ESE 16.1 mph 26.5 mph 0.05 in   Overcast
3:53 PM 32.0 °F 20.5 °F 30.0 °F 92% 29.89 in 5.0 mi ESE 18.4 mph 26.5 mph 0.05 in   Overcast
4:34 PM 32.0 °F 21.2 °F 30.2 °F 93% 29.84 in 2.5 mi ESE 16.1 mph 26.5 mph 0.01 in   Overcast
4:41 PM 32.0 °F 21.2 °F 30.2 °F 93% 29.84 in 3.0 mi ESE 16.1 mph - 0.01 in   Overcast
4:53 PM 32.0 °F 20.5 °F 30.0 °F 92% 29.85 in 3.0 mi ESE 18.4 mph 25.3 mph 0.02 in   Overcast
4:57 PM 32.0 °F 19.8 °F 30.2 °F 93% 29.83 in 2.5 mi ESE 20.7 mph 26.5 mph 0.01 in   Overcast
5:19 PM 32.0 °F 20.8 °F 30.2 °F 93% 29.82 in 2.5 mi ESE 17.3 mph 26.5 mph 0.04 in   Overcast
5:26 PM 32.0 °F 18.9 °F 30.2 °F 93% 29.80 in 2.0 mi ESE 24.2 mph 31.1 mph 0.06 in   Overcast
5:40 PM 32.0 °F 19.5 °F 30.2 °F 93% 29.78 in 2.5 mi ESE 21.9 mph 28.8 mph 0.06 in Rain Light Freezing Rain
5:53 PM 32.0 °F 21.2 °F 30.0 °F 92% 29.81 in 6.0 mi ESE 16.1 mph 28.8 mph 0.06 in Rain Light Freezing Rain
6:01 PM 32.0 °F 20.8 °F 30.2 °F 93% 29.79 in 6.0 mi ESE 17.3 mph 26.5 mph 0.00 in   Overcast
6:14 PM 32.0 °F 19.5 °F 30.2 °F 93% 29.77 in 5.0 mi ESE 21.9 mph 28.8 mph 0.01 in Rain Light Freezing Rain
6:53 PM 32.0 °F 19.5 °F 30.0 °F 92% 29.77 in 5.0 mi ESE 21.9 mph 28.8 mph 0.02 in Rain Light Freezing Rain
7:14 PM 33.8 °F 21.9 °F 30.2 °F 87% 29.73 in 5.0 mi ESE 21.9 mph - 0.01 in Rain Light Freezing Rain
7:24 PM 33.8 °F 21.3 °F 30.2 °F 87% 29.72 in 2.5 mi SE 24.2 mph 31.1 mph 0.05 in Rain Light Freezing Rain
7:29 PM 33.8 °F 21.3 °F 30.2 °F 87% 29.72 in 2.5 mi SE 24.2 mph 31.1 mph 0.05 in Rain Light Freezing Rain
7:38 PM 33.8 °F 22.5 °F 30.2 °F 87% 29.72 in 4.0 mi SE 19.6 mph 32.2 mph 0.05 in Rain Light Freezing Rain
7:46 PM 33.8 °F 22.8 °F 30.2 °F 87% 29.72 in 2.5 mi SE 18.4 mph 27.6 mph 0.09 in Rain Light Freezing Rain
7:51 PM 33.8 °F 23.5 °F 30.2 °F 87% 29.71 in 1.8 mi ESE 16.1 mph 27.6 mph 0.10 in Rain Light Freezing Rain
7:53 PM 33.1 °F 22.2 °F 30.9 °F 92% 29.73 in 1.8 mi ESE 17.3 mph 25.3 mph 0.10 in Rain Light Freezing Rain
7:59 PM 33.8 °F 23.5 °F 30.2 °F 87% 29.71 in 3.0 mi ESE 16.1 mph 24.2 mph 0.00 in Rain Light Freezing Rain
8:17 PM 33.8 °F 23.5 °F 30.2 °F 87% 29.69 in 4.0 mi ESE 16.1 mph - 0.00 in Rain Light Rain
8:42 PM 33.8 °F 23.2 °F 30.2 °F 87% 29.67 in 5.0 mi ESE 17.3 mph - 0.00 in Rain Light Rain
8:53 PM 34.0 °F 23.8 °F 32.0 °F 92% 29.68 in 4.0 mi ESE 16.1 mph - 0.00 in Rain Light Rain
9:18 PM 33.8 °F 23.9 °F 32.0 °F 93% 29.63 in 4.0 mi ESE 15.0 mph - 0.01 in   Overcast
9:53 PM 35.1 °F 25.2 °F 33.1 °F 92% 29.62 in 5.0 mi ESE 16.1 mph - 0.01 in   Overcast
10:51 PM 35.6 °F 26.2 °F 33.8 °F 93% 29.54 in 3.0 mi ESE 15.0 mph - N/A   Overcast
10:53 PM 36.0 °F 27.1 °F 34.0 °F 93% 29.55 in 3.0 mi ESE 13.8 mph - N/A   Overcast
11:06 PM 35.6 °F 25.9 °F 33.8 °F 93% 29.51 in 2.5 mi East 16.1 mph - 0.00 in Rain Light Rain
11:53 PM 37.0 °F 28.5 °F 35.1 °F 93% 29.49 in 2.0 mi ESE 13.8 mph - 0.01 in Rain , Thunderstorm Light Rain